| time (UTC) | temp F | wind direction | speed MPH | gust MPH | rain 1hr in | rain 24hr in | rain mn in | humidity % | barometer mb |
| 20260510201527 | 48 | 132 | 1.0 | 3.0 | 0.00 | 0.00 | 0.00 | 62 | |
| 20260510200527 | 48 | 127 | 1.0 | 4.0 | 0.00 | 0.00 | 0.00 | 61 | |
| 20260510195527 | 49 | 153 | 1.0 | 2.0 | 0.00 | 0.00 | 0.00 | 62 | |
| 20260510194527 | 49 | 78 | 0.0 | 2.0 | 0.00 | 0.00 | 0.00 | 60 | |
| 20260510193527 | 50 | 78 | 1.0 | 3.0 | 0.00 | 0.00 | 0.00 | 59 | |
| 20260510192527 | 50 | 126 | 1.0 | 4.0 | 0.00 | 0.00 | 0.00 | 60 | |
| 20260510191527 | 51 | 120 | 2.0 | 3.0 | 0.00 | 0.00 | 0.00 | 58 | |
| 20260510190527 | 51 | 156 | 1.0 | 2.0 | 0.00 | 0.00 | 0.00 | 57 | |
| 20260510185527 | 52 | 120 | 1.0 | 3.0 | 0.00 | 0.00 | 0.00 | 55 | |
| 20260510184527 | 52 | 133 | 2.0 | 4.0 | 0.00 | 0.00 | 0.00 | 54 | |
| 20260510183527 | 53 | 111 | 2.0 | 4.0 | 0.00 | 0.00 | 0.00 | 53 | |
| 20260510182527 | 54 | 104 | 1.0 | 2.0 | 0.00 | 0.00 | 0.00 | 52 | |
| 20260510181527 | 54 | 185 | 2.0 | 4.0 | 0.00 | 0.00 | 0.00 | 51 | |
| 20260510180527 | 55 | 155 | 3.0 | 6.0 | 0.00 | 0.00 | 0.00 | 49 | |
| 20260510175527 | 55 | 153 | 3.0 | 7.0 | 0.00 | 0.00 | 0.00 | 48 | |
| 20260510174527 | 55 | 142 | 3.0 | 11.0 | 0.00 | 0.00 | 0.00 | 48 | |
| 20260510173527 | 55 | 118 | 2.0 | 6.0 | 0.00 | 0.00 | 0.00 | 48 | |
| 20260510172527 | 55 | 286 | 2.0 | 4.0 | 0.00 | 0.00 | 0.00 | 47 | |
| 20260510171527 | 56 | 116 | 2.0 | 5.0 | 0.00 | 0.00 | 0.00 | 48 | |
| 20260510170527 | 56 | 318 | 3.0 | 6.0 | 0.00 | 0.00 | 0.00 | 48 | |
| 20260510165527 | 57 | 336 | 4.0 | 8.0 | 0.00 | 0.00 | 0.00 | 47 | |
| 20260510164527 | 56 | 56 | 2.0 | 4.0 | 0.00 | 0.00 | 0.00 | 50 | |
| 20260510162527 | 57 | 79 | 2.0 | 6.0 | 0.00 | 0.00 | 0.00 | 47 | |
| 20260510161527 | 57 | 319 | 2.0 | 4.0 | 0.00 | 0.00 | 0.00 | 48 | |
| 20260510160527 | 57 | 340 | 4.0 | 6.0 | 0.00 | 0.00 | 0.00 | 49 | |
| 20260510155527 | 56 | 350 | 2.0 | 4.0 | 0.00 | 0.00 | 0.00 | 51 | |
| 20260510154527 | 58 | 354 | 3.0 | 6.0 | 0.00 | 0.00 | 0.00 | 48 | |
| 20260510153526 | 58 | 131 | 3.0 | 6.0 | 0.00 | 0.00 | 0.00 | 48 | |
| 20260510152526 | 57 | 39 | 4.0 | 9.0 | 0.00 | 0.00 | 0.00 | 51 | |
| 20260510151527 | 57 | 345 | 2.0 | 5.0 | 0.00 | 0.00 | 0.00 | 52 | |
| 20260510150526 | 56 | 142 | 3.0 | 7.0 | 0.00 | 0.00 | 0.00 | 53 | |
| 20260510145527 | 56 | 132 | 3.0 | 7.0 | 0.00 | 0.00 | 0.00 | 54 | |
| 20260510144527 | 57 | 53 | 3.0 | 5.0 | 0.00 | 0.00 | 0.00 | 54 | |
| 20260510143526 | 56 | 284 | 3.0 | 5.0 | 0.00 | 0.00 | 0.00 | 54 | |
| 20260510142527 | 57 | 79 | 3.0 | 12.0 | 0.00 | 0.00 | 0.00 | 52 | |
| 20260510141527 | 55 | 82 | 3.0 | 6.0 | 0.00 | 0.00 | 0.00 | 58 | |
| 20260510140527 | 56 | 51 | 3.0 | 5.0 | 0.00 | 0.00 | 0.00 | 57 | |
| 20260510135527 | 56 | 22 | 2.0 | 6.0 | 0.00 | 0.00 | 0.00 | 57 | |
| 20260510134526 | 55 | 116 | 3.0 | 9.0 | 0.00 | 0.00 | 0.00 | 57 | |
| 20260510133527 | 55 | 104 | 3.0 | 6.0 | 0.00 | 0.00 | 0.00 | 58 | |
| 20260510132527 | 55 | 103 | 4.0 | 8.0 | 0.00 | 0.00 | 0.00 | 60 | |
| 20260510131526 | 55 | 104 | 2.0 | 5.0 | 0.00 | 0.00 | 0.00 | 60 | |
| 20260510130526 | 56 | 126 | 4.0 | 10.0 | 0.00 | 0.00 | 0.00 | 60 | |
| 20260510125525 | 54 | 24 | 3.0 | 5.0 | 0.00 | 0.00 | 0.00 | 63 | |
| 20260510124525 | 53 | 94 | 3.0 | 4.0 | 0.00 | 0.00 | 0.00 | 64 | |
| 20260510123525 | 54 | 17 | 2.0 | 4.0 | 0.00 | 0.00 | 0.00 | 65 | |
| 20260510122525 | 53 | 138 | 3.0 | 6.0 | 0.00 | 0.00 | 0.00 | 67 | |
| 20260510121524 | 53 | 11 | 3.0 | 7.0 | 0.00 | 0.00 | 0.00 | 68 | |
| 20260510120524 | 53 | 321 | 3.0 | 7.0 | 0.00 | 0.00 | 0.00 | 68 | |
| 20260510115524 | 53 | 106 | 2.0 | 4.0 | 0.00 | 0.00 | 0.00 | 69 | |
| 20260510114524 | 53 | 14 | 2.0 | 6.0 | 0.00 | 0.00 | 0.00 | 69 | |
| 20260510113524 | 53 | 24 | 3.0 | 7.0 | 0.00 | 0.00 | 0.00 | 69 | |
| 20260510112524 | 53 | 34 | 3.0 | 7.0 | 0.00 | 0.00 | 0.00 | 69 | |
| 20260510111524 | 53 | 120 | 3.0 | 10.0 | 0.00 | 0.00 | 0.00 | 69 | |
| 20260510110524 | 53 | 18 | 3.0 | 6.0 | 0.00 | 0.00 | 0.00 | 69 | |
| 20260510105524 | 53 | 313 | 3.0 | 7.0 | 0.00 | 0.00 | 0.00 | 70 | |
| 20260510104524 | 52 | 241 | 3.0 | 6.0 | 0.00 | 0.00 | 0.00 | 71 | |
| 20260510103524 | 52 | 118 | 3.0 | 6.0 | 0.00 | 0.00 | 0.00 | 73 | |
| 20260510102524 | 52 | 337 | 2.0 | 4.0 | 0.00 | 0.00 | 0.00 | 73 | |
| 20260510101523 | 50 | 4 | 3.0 | 5.0 | 0.00 | 0.00 | 0.00 | 76 | |
| 20260510100523 | 50 | 319 | 3.0 | 6.0 | 0.00 | 0.00 | 0.00 | 77 | |
| 20260510095523 | 50 | 93 | 4.0 | 9.0 | 0.00 | 0.00 | 0.00 | 77 | |
| 20260510094523 | 50 | 322 | 3.0 | 7.0 | 0.00 | 0.00 | 0.00 | 79 | |
| 20260510093523 | 49 | 326 | 3.0 | 6.0 | 0.00 | 0.00 | 0.00 | 80 | |
| 20260510092523 | 49 | 352 | 2.0 | 5.0 | 0.00 | 0.00 | 0.00 | 80 | |
| 20260510091523 | 49 | 329 | 2.0 | 4.0 | 0.00 | 0.00 | 0.00 | 80 | |
| 20260510090523 | 49 | 53 | 3.0 | 6.0 | 0.00 | 0.00 | 0.00 | 80 | |
| 20260510085523 | 49 | 63 | 2.0 | 4.0 | 0.00 | 0.00 | 0.00 | 81 | |
| 20260510084523 | 48 | 87 | 2.0 | 4.0 | 0.00 | 0.00 | 0.00 | 81 | |
| 20260510083523 | 48 | 336 | 2.0 | 6.0 | 0.00 | 0.00 | 0.00 | 82 | |
| 20260510082523 | 48 | 333 | 1.0 | 5.0 | 0.00 | 0.00 | 0.00 | 83 | |
| 20260510081523 | 48 | 352 | 2.0 | 4.0 | 0.00 | 0.00 | 0.00 | 83 | |
| 20260510080523 | 48 | 326 | 1.0 | 3.0 | 0.00 | 0.00 | 0.00 | 83 | |
| 20260510075523 | 49 | 256 | 0.0 | 2.0 | 0.00 | 0.00 | 0.00 | 83 | |
| 20260510074523 | 49 | 335 | 2.0 | 6.0 | 0.00 | 0.00 | 0.00 | 83 | |
| 20260510073523 | 49 | 320 | 2.0 | 3.0 | 0.00 | 0.00 | 0.00 | 83 | |
| 20260510072523 | 49 | 327 | 2.0 | 5.0 | 0.00 | 0.00 | 0.00 | 82 | |
| 20260510071522 | 49 | 26 | 1.0 | 3.0 | 0.00 | 0.00 | 0.00 | 82 | |
| 20260510070523 | 49 | 46 | 1.0 | 5.0 | 0.00 | 0.00 | 0.00 | 83 | |
| 20260510065522 | 49 | 25 | 2.0 | 4.0 | 0.00 | 0.00 | 0.00 | 82 | |
| 20260510064523 | 49 | 345 | 3.0 | 4.0 | 0.00 | 0.00 | 0.00 | 83 | |
| 20260510063523 | 49 | 7 | 2.0 | 6.0 | 0.00 | 0.00 | 0.00 | 84 | |
| 20260510062523 | 49 | 130 | 1.0 | 5.0 | 0.00 | 0.00 | 0.00 | 84 | |
| 20260510061523 | 49 | 347 | 2.0 | 5.0 | 0.00 | 0.00 | 0.00 | 84 | |
| 20260510060523 | 49 | 108 | 2.0 | 5.0 | 0.00 | 0.00 | 0.00 | 83 | |
| 20260510055522 | 49 | 90 | 3.0 | 6.0 | 0.00 | 0.00 | 0.00 | 84 | |
| 20260510054522 | 50 | 94 | 2.0 | 6.0 | 0.00 | 0.00 | 0.00 | 83 | |
| 20260510053522 | 49 | 304 | 1.0 | 4.0 | 0.00 | 0.00 | 0.00 | 83 | |
| 20260510052522 | 49 | 71 | 1.0 | 3.0 | 0.00 | 0.00 | 0.00 | 83 | |
| 20260510051522 | 49 | 343 | 1.0 | 4.0 | 0.00 | 0.00 | 0.00 | 83 | |
| 20260510050522 | 49 | 306 | 1.0 | 2.0 | 0.00 | 0.00 | 0.00 | 83 | |
| 20260510045522 | 49 | 318 | 1.0 | 2.0 | 0.00 | 0.00 | 0.00 | 82 | |
| 20260510044522 | 49 | 124 | 1.0 | 4.0 | 0.00 | 0.00 | 0.00 | 81 | |
| 20260510043522 | 49 | 311 | 2.0 | 6.0 | 0.00 | 0.00 | 0.00 | 83 | |
| 20260510042522 | 49 | 345 | 2.0 | 6.0 | 0.00 | 0.00 | 0.00 | 82 | |
| 20260510041522 | 49 | 325 | 2.0 | 4.0 | 0.00 | 0.00 | 0.00 | 83 | |
| 20260510040522 | 48 | 20 | 1.0 | 3.0 | 0.00 | 0.00 | 0.00 | 84 | |
| 20260510035522 | 48 | 4 | 2.0 | 5.0 | 0.00 | 0.00 | 0.00 | 83 | |
| 20260510034522 | 48 | 136 | 1.0 | 4.0 | 0.00 | 0.00 | 0.00 | 84 | |
| 20260510033522 | 48 | 322 | 1.0 | 3.0 | 0.00 | 0.00 | 0.00 | 84 | |
| 20260510032522 | 48 | 317 | 1.0 | 4.0 | 0.00 | 0.00 | 0.00 | 84 | |
| 20260510031522 | 48 | 317 | 1.0 | 4.0 | 0.00 | 0.00 | 0.00 | 83 | |
| 20260510030522 | 48 | 83 | 1.0 | 4.0 | 0.00 | 0.00 | 0.00 | 84 | |
| 20260510025522 | 49 | 330 | 0.0 | 2.0 | 0.00 | 0.00 | 0.00 | 84 | |
| 20260510024522 | 49 | 310 | 2.0 | 5.0 | 0.00 | 0.00 | 0.00 | 83 | |
| 20260510023522 | 49 | 294 | 1.0 | 2.0 | 0.00 | 0.00 | 0.00 | 83 | |
| 20260510022522 | 49 | 269 | 2.0 | 6.0 | 0.00 | 0.00 | 0.00 | 83 | |
| 20260510021522 | 49 | 292 | 1.0 | 4.0 | 0.00 | 0.00 | 0.00 | 83 | |
| 20260510020522 | 49 | 294 | 0.0 | 2.0 | 0.00 | 0.00 | 0.00 | 83 | |
| 20260510015522 | 48 | 173 | 1.0 | 4.0 | 0.00 | 0.00 | 0.00 | 83 | |
| 20260510014522 | 48 | 258 | 1.0 | 3.0 | 0.00 | 0.00 | 0.00 | 84 | |
| 20260510013522 | 48 | 180 | 1.0 | 2.0 | 0.00 | 0.00 | 0.00 | 84 | |
| 20260510012522 | 48 | 312 | 0.0 | 3.0 | 0.00 | 0.00 | 0.00 | 84 | |
| 20260510011522 | 48 | 54 | 1.0 | 2.0 | 0.00 | 0.00 | 0.00 | 84 | |
| 20260510010522 | 48 | 54 | 0.0 | 2.0 | 0.00 | 0.00 | 0.00 | 85 | |
| 20260510005522 | 48 | 208 | 2.0 | 5.0 | 0.00 | 0.00 | 0.00 | 86 | |
| 20260510004522 | 48 | 300 | 0.0 | 2.0 | 0.00 | 0.00 | 0.00 | 86 | |
| 20260510003522 | 49 | 201 | 1.0 | 3.0 | 0.00 | 0.00 | 0.00 | 86 | |
| 20260510002522 | 49 | 318 | 0.0 | 2.0 | 0.00 | 0.00 | 0.00 | 86 | |
| 20260510001527 | 49 | 300 | 2.0 | 3.0 | 0.00 | 0.00 | 0.00 | 86 | |
| 20260510000522 | 49 | 308 | 2.0 | 4.0 | 0.00 | 0.00 | 0.00 | 86 | |
| 20260509235522 | 50 | 295 | 1.0 | 2.0 | 0.00 | 0.00 | 0.00 | 85 | |
| 20260509234521 | 50 | 306 | 1.0 | 2.0 | 0.00 | 0.00 | 0.00 | 85 | |
| 20260509233522 | 50 | 305 | 1.0 | 4.0 | 0.00 | 0.00 | 0.00 | 85 | |
| 20260509232522 | 50 | 36 | 2.0 | 4.0 | 0.00 | 0.00 | 0.00 | 84 | |
| 20260509231522 | 50 | 348 | 0.0 | 2.0 | 0.00 | 0.00 | 0.00 | 83 | |
| 20260509230522 | 51 | 306 | 0.0 | 2.0 | 0.00 | 0.00 | 0.00 | 82 | |
| 20260509225522 | 51 | 305 | 0.0 | 4.0 | 0.00 | 0.00 | 0.00 | 81 | |
| 20260509224522 | 51 | 307 | 2.0 | 5.0 | 0.00 | 0.00 | 0.00 | 80 | |
| 20260509223522 | 52 | 294 | 0.0 | 2.0 | 0.00 | 0.00 | 0.00 | 79 | |
| 20260509222522 | 52 | 131 | 1.0 | 2.0 | 0.00 | 0.00 | 0.00 | 79 | |
| 20260509221522 | 53 | 322 | 1.0 | 4.0 | 0.00 | 0.00 | 0.00 | 78 | |
| 20260509215522 | 54 | 6 | 3.0 | 6.0 | 0.00 | 0.00 | 0.00 | 76 | |
| 20260509214522 | 54 | 237 | 2.0 | 6.0 | 0.00 | 0.00 | 0.00 | 76 | |
| 20260509213521 | 54 | 136 | 2.0 | 6.0 | 0.00 | 0.00 | 0.00 | 76 | |
| 20260509212521 | 55 | 141 | 4.0 | 7.0 | 0.00 | 0.00 | 0.00 | 76 | |
| 20260509211521 | 55 | 86 | 4.0 | 7.0 | 0.00 | 0.00 | 0.00 | 77 | |
| 20260509210521 | 56 | 113 | 4.0 | 7.0 | 0.00 | 0.00 | 0.00 | 77 | |
| 20260509205520 | 56 | 132 | 4.0 | 10.0 | 0.00 | 0.00 | 0.00 | 77 | |
| 20260509204520 | 57 | 108 | 4.0 | 7.0 | 0.00 | 0.00 | 0.00 | 77 | |
| 20260509203520 | 57 | 58 | 3.0 | 8.0 | 0.00 | 0.00 | 0.00 | 76 | |
| 20260509202520 | 58 | 100 | 3.0 | 7.0 | 0.00 | 0.00 | 0.00 | 75 |